Zacatecas Airport, Mexico

3:44 AM CDT on August 24, 2017 (GMT -0500)
Gen Leobardo C Ruiz International

Weather History for MMZC - November, 2012

Change the Weather History Date:

Thursday, November 22, 2012

  Actual Average Record
Temperature  
Mean Temperature 54 °F -  
Max Temperature 71 °F 69 °F 78 °F (2010)
Min Temperature 37 °F 35 °F -4 °F (2006)
Degree Days  
Heating Degree Days 11    
Growing Degree Days 4 (Base 50)    
Moisture  
Dew Point 36 °F    
Average Humidity 48    
Maximum Humidity 87    
Minimum Humidity 23    
Precipitation  
Precipitation 0.00 in - - ()
Sea Level Pressure  
Sea Level Pressure 30.31 in    
Wind  
Wind Speed 3 mph ()    
Max Wind Speed 10 mph    
Max Gust Speed -    
Visibility 10.0 miles    
Events      
Averages and records for this station are not official NWS values.
T = Trace of Precipitation, MM = Missing Value Source: Averaged Metar Reports

Daily Weather History Graph

Daily Weather History Graph

Search for Another Location

Airport or City:

Trip Planner

Search our weather history database for the weather conditions in past years. The results will help you decide how hot, cold, wet, or windy it might be!

Date:

Astronomy

Nov. 22, 2012 Rise Set
Actual Time 7:08 AM CST 6:04 PM CST
Civil Twilight 6:45 AM CST 6:28 PM CST
Nautical Twilight 6:17 AM CST 6:56 PM CST
Astronomical Twilight 5:50 AM CST 7:23 PM CST
Moon 2:21 PM CST (11/22) 2:05 AM CST (11/22)
Length of Visible Light 11h 43m
Length of Day
10h 55m
Waxing Gibbous, 71% of the Moon is Illuminated
Nov 22
Waxing Gibbous
Nov 28
Full
Dec 6
Last Quarter
Dec 13
New
Dec 19
First Quarter

Hourly Weather History & Observations

Time (CST) Temp. Windchill Dew Point Humidity Pressure Visibility Wind Dir Wind Speed Gust Speed Precip Events Conditions
12:41 AM 46.4 °F - 37.4 °F 71% 30.32 in 10.0 mi Calm Calm - N/A   Mostly Cloudy
1:41 AM 46.4 °F - 37.4 °F 71% 30.31 in 10.0 mi Calm Calm - N/A   Mostly Cloudy
3:39 AM 42.8 °F 40.1 °F 37.4 °F 81% 30.30 in 10.0 mi SSE 4.6 mph - N/A   Scattered Clouds
4:41 AM 46.4 °F - 35.6 °F 66% 30.31 in 10.0 mi Calm Calm - N/A   Scattered Clouds
5:41 AM 42.8 °F - 37.4 °F 81% 30.32 in 10.0 mi Calm Calm - N/A   Partly Cloudy
6:42 AM 37.4 °F 32.8 °F 33.8 °F 87% 30.33 in 10.0 mi South 5.8 mph - N/A   Clear
8:42 AM 51.8 °F - 42.8 °F 71% 30.36 in 10.0 mi SSW 5.8 mph - N/A   Scattered Clouds
9:42 AM 60.8 °F - 42.8 °F 52% 30.37 in 10.0 mi South 9.2 mph - N/A   Partly Cloudy
10:43 AM 66.2 °F - 39.2 °F 37% 30.36 in 10.0 mi SW 8.1 mph - N/A   Partly Cloudy
11:43 AM 68.0 °F - 37.4 °F 33% 30.35 in 10.0 mi South 8.1 mph - N/A   Scattered Clouds
12:42 PM 68.0 °F - 35.6 °F 30% 30.32 in 10.0 mi West 6.9 mph - N/A   Scattered Clouds
1:42 PM 71.6 °F - 35.6 °F 27% 30.28 in 10.0 mi WSW 6.9 mph - N/A   Scattered Clouds
2:50 PM 71.6 °F - 33.8 °F 25% 30.26 in 10.0 mi Calm Calm - N/A   Mostly Cloudy
3:46 PM 71.6 °F - 32.0 °F 23% 30.26 in 10.0 mi SSE 3.5 mph - N/A   Mostly Cloudy
4:47 PM 69.8 °F - 32.0 °F 25% 30.25 in 10.0 mi Calm Calm - N/A   Mostly Cloudy
5:52 PM 66.2 °F - 32.0 °F 28% 30.26 in 10.0 mi Calm Calm - N/A   Mostly Cloudy
6:47 PM 64.4 °F - 32.0 °F 30% 30.28 in 10.0 mi NNW 8.1 mph - N/A   Mostly Cloudy
7:44 PM 62.6 °F - 32.0 °F 32% 30.30 in 10.0 mi Calm Calm - N/A   Mostly Cloudy
8:46 PM 57.2 °F - 32.0 °F 38% 30.33 in 10.0 mi ESE 4.6 mph - N/A   Mostly Cloudy
9:49 PM 51.8 °F - 32.0 °F 47% 30.33 in 10.0 mi SSW 3.5 mph - N/A   Mostly Cloudy
10:47 PM 55.4 °F - 33.8 °F 44% 30.35 in 10.0 mi North 10.4 mph - N/A   Mostly Cloudy
11:41 PM 55.4 °F - 37.4 °F 51% 30.35 in 10.0 mi NNE 9.2 mph - N/A   Mostly Cloudy